If you wish to contribute or participate in the discussions about articles you are invited to join SKYbrary as a registered user

 Actions

Ain Arnat Airport

From SKYbrary Wiki

DAAS
Airport
ICAO: DAAS – IATA: QSF
Summary
Name Ain Arnat Airport
Region Africa
Territory Algeria DZ.gif
Location , Setif
Serving Setif
Elevation 1,024.128 m
3,360 ft
3,360 ft1,024.128 m
Type medium airport
Coordinates 36° 10' 41.16" N, 5° 19' 28.16" E
Runways
Designator Length Width Surface ROPS


METAR
Observation DAAS 191400Z 26005KT 210V330 9999 SCT030 33/04 Q1019
Station Setif
Date/Time 19 July 2019 14:00:00
Wind direction 260°
Wind speed 05 kts
Lowest cloud amount scattered clouds
Temperature 33°C
Dew point 4°C
Humidity 16%
QNH 1019 hPa
Weather condition n/a